| time (UTC) | temp F | wind direction | speed MPH | gust MPH | rain 1hr in | rain 24hr in | rain mn in | humidity % | barometer mb |
| 20260502163013 | 40 | 343 | 6.0 | 13.0 | 0.00 | 0.17 | 0.00 | 70 | 1015.8 |
| 20260502161511 | 41 | 5 | 3.0 | 12.0 | 0.00 | 0.17 | 0.00 | 70 | 1015.7 |
| 20260502151509 | 43 | 347 | 4.0 | 9.0 | 0.00 | 0.17 | 0.00 | 67 | 1015.3 |
| 20260502123049 | 37 | 224 | 0.0 | 3.0 | 0.00 | 0.17 | 0.00 | 84 | 1015.7 |
| 20260502121551 | 37 | 224 | 0.0 | 3.0 | 0.00 | 0.17 | 0.00 | 84 | 1015.6 |
| 20260502114546 | 37 | 200 | 2.0 | 5.0 | 0.00 | 0.17 | 0.00 | 84 | 1015.8 |
| 20260502113043 | 38 | 223 | 1.0 | 4.0 | 0.00 | 0.17 | 0.00 | 84 | 1015.6 |
| 20260502111545 | 36 | 257 | 1.0 | 3.0 | 0.00 | 0.17 | 0.00 | 84 | 1015.7 |
| 20260502110037 | 35 | 275 | 0.0 | 1.0 | 0.00 | 0.17 | 0.00 | 84 | 1015.5 |
| 20260502104536 | 35 | 275 | 0.0 | 1.0 | 0.00 | 0.17 | 0.00 | 84 | 1015.4 |
| 20260502103038 | 36 | 275 | 0.0 | 0.0 | 0.00 | 0.17 | 0.00 | 84 | 1015.4 |
| 20260502101531 | 36 | 275 | 0.0 | 3.0 | 0.00 | 0.17 | 0.00 | 84 | 1015.8 |
| 20260502091527 | 35 | 288 | 0.0 | 2.0 | 0.00 | 0.17 | 0.00 | 83 | 1015.6 |
| 20260502071518 | 35 | 290 | 0.0 | 2.0 | 0.00 | 0.17 | 0.00 | 81 | 1015.3 |
| 20260502070023 | 35 | 290 | 0.0 | 1.0 | 0.00 | 0.17 | 0.00 | 80 | 1015.4 |
| 20260502064517 | 35 | 290 | 0.0 | 0.0 | 0.00 | 0.17 | 0.00 | 80 | 1015.5 |
| 20260502063025 | 35 | 290 | 0.0 | 1.0 | 0.00 | 0.17 | 0.00 | 79 | 1015.6 |
| 20260502061513 | 36 | 290 | 0.0 | 2.0 | 0.00 | 0.17 | 0.00 | 79 | 1015.6 |
| 20260502060018 | 36 | 290 | 0.0 | 3.0 | 0.00 | 0.17 | 0.00 | 79 | 1015.7 |
| 20260502054517 | 36 | 290 | 1.0 | 2.0 | 0.00 | 0.17 | 0.00 | 78 | 1015.7 |
| 20260502053010 | 36 | 290 | 0.0 | 3.0 | 0.00 | 0.17 | 0.00 | 78 | 1015.9 |
| 20260502051507 | 37 | 290 | 0.0 | 2.0 | 0.00 | 0.17 | 0.00 | 78 | 1015.7 |
| 20260502050009 | 37 | 290 | 1.0 | 3.0 | 0.00 | 0.17 | 0.00 | 77 | 1015.8 |
| 20260502044504 | 37 | 290 | 1.0 | 3.0 | 0.00 | 0.17 | 0.00 | 77 | 1015.6 |
| 20260502043002 | 37 | 290 | 0.0 | 0.0 | 0.00 | 0.17 | 0.00 | 77 | 1015.7 |
| 20260502041501 | 37 | 290 | 0.0 | 3.0 | 0.00 | 0.17 | 0.00 | 77 | 1015.7 |
| 20260502040059 | 37 | 290 | 1.0 | 4.0 | 0.00 | 0.17 | 0.00 | 76 | 1015.7 |
| 20260502034558 | 37 | 296 | 1.0 | 5.0 | 0.00 | 0.17 | 0.17 | 76 | 1015.6 |
| 20260502033058 | 38 | 279 | 0.0 | 5.0 | 0.00 | 0.17 | 0.17 | 76 | 1015.6 |
| 20260502031558 | 38 | 308 | 2.0 | 5.0 | 0.00 | 0.17 | 0.17 | 76 | 1015.5 |
| 20260502030059 | 38 | 302 | 1.0 | 5.0 | 0.00 | 0.17 | 0.17 | 75 | 1015.3 |
| 20260502024556 | 38 | 300 | 0.0 | 4.0 | 0.00 | 0.17 | 0.17 | 75 | 1015.4 |
| 20260502023057 | 39 | 299 | 2.0 | 5.0 | 0.00 | 0.17 | 0.17 | 75 | 1015.6 |
| 20260502021553 | 39 | 337 | 3.0 | 10.0 | 0.00 | 0.17 | 0.17 | 76 | 1015.3 |
| 20260502020052 | 39 | 335 | 3.0 | 9.0 | 0.00 | 0.17 | 0.17 | 75 | 1015.1 |
| 20260502014551 | 39 | 293 | 3.0 | 9.0 | 0.00 | 0.17 | 0.17 | 75 | 1014.8 |
| 20260502013050 | 39 | 355 | 3.0 | 9.0 | 0.00 | 0.17 | 0.17 | 75 | 1014.7 |
| 20260502011548 | 40 | 327 | 1.0 | 11.0 | 0.00 | 0.17 | 0.17 | 75 | 1014.6 |
| 20260502010052 | 40 | 313 | 5.0 | 11.0 | 0.00 | 0.17 | 0.17 | 76 | 1014.5 |
| 20260502004603 | 40 | 331 | 5.0 | 9.0 | 0.01 | 0.17 | 0.17 | 75 | 1013.7 |
| 20260502003046 | 41 | 313 | 6.0 | 12.0 | 0.01 | 0.17 | 0.17 | 75 | 1013.2 |
| 20260502001545 | 41 | 320 | 6.0 | 14.0 | 0.01 | 0.17 | 0.17 | 75 | 1013.0 |
| 20260502000053 | 42 | 10 | 9.0 | 19.0 | 0.01 | 0.17 | 0.17 | 76 | 1012.6 |
| 20260501234544 | 43 | 269 | 5.0 | 12.0 | 0.03 | 0.16 | 0.16 | 75 | 1012.5 |
| 20260501233043 | 43 | 328 | 6.0 | 11.0 | 0.03 | 0.16 | 0.16 | 75 | 1012.2 |
| 20260501231542 | 43 | 341 | 5.0 | 13.0 | 0.03 | 0.16 | 0.16 | 74 | 1011.7 |
| 20260501230042 | 43 | 323 | 8.0 | 19.0 | 0.03 | 0.16 | 0.16 | 73 | 1011.3 |
| 20260501224541 | 47 | 267 | 8.0 | 13.0 | 0.00 | 0.16 | 0.13 | 73 | 1011.0 |
| 20260501223039 | 47 | 216 | 1.0 | 4.0 | 0.00 | 0.16 | 0.13 | 74 | 1010.9 |
| 20260501221638 | 47 | 223 | 2.0 | 5.0 | 0.00 | 0.16 | 0.13 | 74 | 1011.0 |
| 20260501220040 | 47 | 238 | 2.0 | 10.0 | 0.00 | 0.16 | 0.13 | 74 | 1011.1 |
| 20260501214638 | 47 | 226 | 4.0 | 6.0 | 0.00 | 0.16 | 0.13 | 74 | 1010.9 |
| 20260501213046 | 47 | 204 | 2.0 | 6.0 | 0.01 | 0.16 | 0.13 | 74 | 1011.1 |
| 20260501211538 | 46 | 200 | 2.0 | 8.0 | 0.04 | 0.16 | 0.13 | 74 | 1011.1 |
| 20260501210035 | 45 | 220 | 4.0 | 7.0 | 0.05 | 0.16 | 0.13 | 74 | 1011.5 |
| 20260501204535 | 45 | 253 | 4.0 | 9.0 | 0.05 | 0.15 | 0.12 | 74 | 1011.4 |
| 20260501203033 | 46 | 267 | 4.0 | 12.0 | 0.05 | 0.14 | 0.11 | 74 | 1011.4 |
| 20260501201532 | 46 | 258 | 4.0 | 8.0 | 0.03 | 0.12 | 0.09 | 73 | 1011.5 |
| 20260501200032 | 46 | 267 | 3.0 | 8.0 | 0.04 | 0.11 | 0.08 | 73 | 1011.2 |
| 20260501194531 | 46 | 290 | 2.0 | 9.0 | 0.05 | 0.10 | 0.07 | 73 | 1011.4 |
| 20260501193030 | 46 | 311 | 3.0 | 9.0 | 0.05 | 0.09 | 0.06 | 73 | 1011.2 |
| 20260501191534 | 47 | 315 | 2.0 | 9.0 | 0.05 | 0.09 | 0.06 | 72 | 1011.3 |
| 20260501190030 | 46 | 291 | 2.0 | 7.0 | 0.03 | 0.07 | 0.04 | 72 | 1011.9 |
| 20260501184528 | 46 | 291 | 6.0 | 11.0 | 0.01 | 0.05 | 0.02 | 69 | 1011.8 |
| 20260501183028 | 48 | 276 | 2.0 | 11.0 | 0.01 | 0.04 | 0.01 | 67 | 1011.7 |
| 20260501181527 | 48 | 298 | 3.0 | 10.0 | 0.01 | 0.04 | 0.01 | 64 | 1011.7 |
| 20260501180035 | 49 | 294 | 6.0 | 12.0 | 0.01 | 0.04 | 0.01 | 62 | 1011.4 |
| 20260501174526 | 49 | 309 | 6.0 | 9.0 | 0.01 | 0.04 | 0.01 | 63 | 1011.2 |